| time (UTC) | temp F | wind direction | speed knots | gust knots | rain 1hr in | rain 24hr in | rain mn in | humidity % | barometer mb |
| 20260507033046 | 52 | 70 | 0.9 | 3.5 | 0.00 | 0.00 | 0.00 | 76 | 1000.0 |
| 20260507031542 | 52 | 5 | 0.9 | 3.5 | 0.00 | 0.00 | 0.00 | 76 | 999.9 |
| 20260507030042 | 52 | 21 | 1.7 | 4.3 | 0.00 | 0.00 | 0.00 | 76 | 999.9 |
| 20260507024545 | 52 | 46 | 1.7 | 4.3 | 0.00 | 0.00 | 0.00 | 76 | 999.9 |
| 20260507023039 | 52 | 44 | 1.7 | 5.2 | 0.00 | 0.00 | 0.00 | 76 | 999.9 |
| 20260507021550 | 52 | 62 | 0.9 | 3.5 | 0.00 | 0.00 | 0.00 | 76 | 1000.0 |
| 20260507020037 | 52 | 55 | 0.0 | 3.5 | 0.00 | 0.00 | 0.00 | 76 | 1000.0 |
| 20260507014535 | 52 | 52 | 0.9 | 5.2 | 0.00 | 0.00 | 0.00 | 77 | 999.8 |
| 20260507013036 | 53 | 45 | 0.9 | 2.6 | 0.00 | 0.00 | 0.00 | 77 | 999.8 |
| 20260507011537 | 53 | 26 | 0.0 | 1.7 | 0.00 | 0.00 | 0.00 | 77 | 999.7 |
| 20260507010041 | 53 | 74 | 0.0 | 4.3 | 0.00 | 0.00 | 0.00 | 77 | 999.7 |
| 20260507004531 | 53 | 20 | 0.0 | 0.9 | 0.00 | 0.00 | 0.00 | 76 | 999.8 |
| 20260507003030 | 53 | 20 | 0.0 | 4.3 | 0.00 | 0.00 | 0.00 | 76 | 999.8 |
| 20260507001533 | 53 | 46 | 0.0 | 0.0 | 0.00 | 0.00 | 0.00 | 76 | 999.8 |
| 20260507000127 | 53 | 46 | 0.0 | 2.6 | 0.00 | 0.00 | 0.00 | 76 | 999.7 |
| 20260506234525 | 53 | 25 | 0.0 | 2.6 | 0.00 | 0.00 | 0.00 | 77 | 999.7 |
| 20260506233025 | 54 | 82 | 0.9 | 4.3 | 0.00 | 0.00 | 0.00 | 77 | 999.6 |
| 20260506231526 | 54 | 29 | 1.7 | 3.5 | 0.00 | 0.00 | 0.00 | 76 | 999.6 |
| 20260506230022 | 54 | 67 | 0.9 | 4.3 | 0.00 | 0.00 | 0.00 | 76 | 999.5 |
| 20260506224520 | 54 | 59 | 0.9 | 3.5 | 0.00 | 0.00 | 0.00 | 76 | 999.4 |
| 20260506223019 | 54 | 42 | 1.7 | 3.5 | 0.00 | 0.00 | 0.00 | 76 | 999.2 |
| 20260506221517 | 54 | 51 | 0.0 | 3.5 | 0.00 | 0.00 | 0.00 | 76 | 999.2 |
| 20260506220023 | 54 | 44 | 0.9 | 4.3 | 0.00 | 0.00 | 0.00 | 76 | 999.2 |
| 20260506214514 | 54 | 78 | 1.7 | 3.5 | 0.00 | 0.00 | 0.00 | 76 | 999.2 |
| 20260506213013 | 54 | 43 | 0.0 | 4.3 | 0.00 | 0.00 | 0.00 | 76 | 999.1 |
| 20260506211513 | 54 | 32 | 0.9 | 2.6 | 0.00 | 0.00 | 0.00 | 76 | 999.0 |
| 20260506210012 | 54 | 33 | 0.0 | 1.7 | 0.00 | 0.00 | 0.00 | 76 | 999.1 |
| 20260506204512 | 53 | 5 | 0.9 | 4.3 | 0.00 | 0.00 | 0.00 | 76 | 999.0 |
| 20260506203022 | 54 | 24 | 0.9 | 4.3 | 0.00 | 0.00 | 0.00 | 76 | 998.9 |
| 20260506201511 | 53 | 5 | 1.7 | 2.6 | 0.00 | 0.00 | 0.00 | 76 | 998.8 |
| 20260506200010 | 53 | 58 | 0.9 | 2.6 | 0.00 | 0.00 | 0.00 | 76 | 998.5 |
| 20260506194511 | 53 | 84 | 0.9 | 3.5 | 0.00 | 0.00 | 0.00 | 76 | 998.4 |
| 20260506193009 | 53 | 38 | 1.7 | 5.2 | 0.00 | 0.00 | 0.00 | 76 | 998.1 |
| 20260506191508 | 53 | 355 | 1.7 | 4.3 | 0.00 | 0.00 | 0.00 | 76 | 997.9 |
| 20260506190007 | 54 | 34 | 0.0 | 1.7 | 0.00 | 0.00 | 0.00 | 76 | 997.8 |
| 20260506184505 | 54 | 339 | 0.0 | 1.7 | 0.00 | 0.00 | 0.00 | 76 | 997.5 |
| 20260506183005 | 54 | 79 | 0.0 | 3.5 | 0.00 | 0.00 | 0.00 | 76 | 996.8 |
| 20260506181505 | 55 | 73 | 0.9 | 7.0 | 0.00 | 0.00 | 0.00 | 76 | 996.2 |
| 20260506180006 | 56 | 55 | 1.7 | 6.1 | 0.00 | 0.00 | 0.00 | 76 | 996.0 |
| 20260506174502 | 56 | 96 | 3.5 | 6.1 | 0.00 | 0.00 | 0.00 | 76 | 996.2 |
| 20260506173002 | 57 | 39 | 0.0 | 1.7 | 0.00 | 0.00 | 0.00 | 76 | 996.9 |
| 20260506171503 | 58 | 39 | 0.0 | 1.7 | 0.00 | 0.00 | 0.00 | 76 | 996.8 |
| 20260506170100 | 58 | 44 | 0.9 | 2.6 | 0.00 | 0.00 | 0.00 | 76 | 996.2 |
| 20260506164600 | 59 | 76 | 0.0 | 1.7 | 0.00 | 0.00 | 0.00 | 76 | 995.9 |
| 20260506163059 | 59 | 76 | 0.0 | 5.2 | 0.00 | 0.00 | 0.00 | 76 | 995.8 |
| 20260506161606 | 59 | 41 | 1.7 | 5.2 | 0.00 | 0.00 | 0.00 | 76 | 995.6 |
| 20260506160058 | 60 | 31 | 1.7 | 7.8 | 0.00 | 0.00 | 0.00 | 76 | 995.3 |
| 20260506154557 | 60 | 355 | 3.5 | 10.4 | 0.00 | 0.00 | 0.00 | 75 | 994.7 |
| 20260506153054 | 61 | 360 | 1.7 | 8.7 | 0.00 | 0.00 | 0.00 | 75 | 995.0 |
| 20260506151605 | 62 | 57 | 4.3 | 10.4 | 0.00 | 0.00 | 0.00 | 74 | 995.1 |
| 20260506150053 | 62 | 22 | 3.5 | 9.6 | 0.00 | 0.00 | 0.00 | 73 | 995.1 |
| 20260506144557 | 61 | 65 | 3.5 | 10.4 | 0.00 | 0.00 | 0.00 | 74 | 995.4 |
| 20260506143056 | 61 | 27 | 5.2 | 13.0 | 0.00 | 0.00 | 0.00 | 74 | 995.5 |
| 20260506141551 | 61 | 68 | 4.3 | 9.6 | 0.00 | 0.00 | 0.00 | 74 | 995.6 |
| 20260506134550 | 63 | 57 | 6.1 | 10.4 | 0.00 | 0.00 | 0.00 | 72 | 995.6 |
| 20260506133051 | 63 | 5 | 3.5 | 9.6 | 0.00 | 0.00 | 0.00 | 74 | 995.6 |
| 20260506131552 | 62 | 30 | 3.5 | 9.6 | 0.00 | 0.00 | 0.00 | 75 | 995.6 |
| 20260506130058 | 61 | 17 | 3.5 | 7.8 | 0.00 | 0.00 | 0.00 | 76 | 995.8 |
| 20260506124545 | 60 | 360 | 2.6 | 7.0 | 0.00 | 0.00 | 0.00 | 76 | 995.9 |
| 20260506123045 | 60 | 298 | 2.6 | 7.8 | 0.00 | 0.00 | 0.00 | 76 | 995.6 |
| 20260506121544 | 63 | 255 | 2.6 | 8.7 | 0.00 | 0.00 | 0.00 | 75 | 995.6 |
| 20260506120043 | 64 | 69 | 1.7 | 5.2 | 0.00 | 0.00 | 0.00 | 75 | 995.4 |
| 20260506114545 | 64 | 248 | 2.6 | 7.8 | 0.00 | 0.00 | 0.00 | 74 | 995.4 |
| 20260506113041 | 65 | 205 | 3.5 | 7.8 | 0.00 | 0.00 | 0.00 | 75 | 995.3 |
| 20260506111539 | 61 | 198 | 2.6 | 8.7 | 0.00 | 0.00 | 0.00 | 76 | 995.5 |
| 20260506110039 | 61 | 50 | 2.6 | 6.1 | 0.00 | 0.00 | 0.00 | 76 | 995.5 |
| 20260506104534 | 61 | 224 | 0.0 | 7.0 | 0.00 | 0.00 | 0.00 | 76 | 995.9 |
| 20260506103034 | 61 | 125 | 2.6 | 9.6 | 0.00 | 0.00 | 0.00 | 76 | 995.9 |
| 20260506101546 | 60 | 98 | 1.7 | 5.2 | 0.00 | 0.00 | 0.00 | 76 | 996.0 |
| 20260506100028 | 59 | 54 | 0.9 | 7.0 | 0.00 | 0.00 | 0.00 | 76 | 996.1 |
| 20260506094528 | 59 | 101 | 4.3 | 8.7 | 0.00 | 0.00 | 0.00 | 76 | 995.9 |
| 20260506093025 | 59 | 82 | 1.7 | 8.7 | 0.00 | 0.00 | 0.00 | 76 | 995.9 |
| 20260506091524 | 58 | 88 | 3.5 | 8.7 | 0.00 | 0.00 | 0.00 | 76 | 995.7 |
| 20260506090020 | 57 | 81 | 3.5 | 8.7 | 0.00 | 0.00 | 0.00 | 76 | 995.9 |
| 20260506084519 | 56 | 63 | 3.5 | 9.6 | 0.00 | 0.00 | 0.00 | 76 | 995.9 |
| 20260506083013 | 56 | 78 | 2.6 | 8.7 | 0.00 | 0.00 | 0.00 | 76 | 995.9 |
| 20260506081512 | 56 | 86 | 4.3 | 7.8 | 0.00 | 0.00 | 0.00 | 76 | 996.0 |
| 20260506073005 | 56 | 78 | 3.5 | 9.6 | 0.00 | 0.00 | 0.00 | 76 | 996.3 |
| 20260506071502 | 56 | 272 | 0.0 | 1.7 | 0.00 | 0.00 | 0.00 | 76 | 996.4 |
| 20260506070104 | 56 | 78 | 1.7 | 6.1 | 0.00 | 0.00 | 0.00 | 76 | 996.4 |
| 20260506061557 | 56 | 65 | 0.0 | 3.5 | 0.00 | 0.00 | 0.00 | 76 | 996.8 |
| 20260506044544 | 55 | 74 | 0.0 | 2.6 | 0.00 | 0.00 | 0.00 | 76 | 997.1 |
| 20260506043043 | 55 | 209 | 0.0 | 3.5 | 0.00 | 0.00 | 0.00 | 76 | 997.3 |
| 20260506041555 | 55 | 74 | 0.9 | 5.2 | 0.00 | 0.00 | 0.00 | 76 | 997.5 |
| 20260506040038 | 54 | 104 | 0.0 | 0.9 | 0.00 | 0.00 | 0.00 | 76 | 997.6 |
| 20260506034536 | 54 | 104 | 0.0 | 7.0 | 0.00 | 0.00 | 0.00 | 76 | 997.6 |